This is the latest recevied weather packets stored in our database for station/object HK6REC-20. If no packets are shown the sender has not sent any weather packets the latest 10 day(s).
| Time | Temp. | Humidity | Pressure | Rain* | Wind** | Luminosity | Snow |
|---|---|---|---|---|---|---|---|
| 1777751544 | 18.33° C | 90% | 1012 hPa | 0 mm | - | - | - |
| 1777750343 | 18.89° C | 89% | 1012 hPa | 0 mm | - | - | - |
| 1777749142 | 19.44° C | 88% | 1014 hPa | 0 mm | - | - | - |
| 1777747941 | 19.44° C | 88% | 1013 hPa | 0 mm | - | - | - |
| 1777746740 | 20° C | 86% | 1012 hPa | 0 mm | - | - | - |
| 1777745539 | 20° C | 86% | 1013 hPa | 0 mm | - | - | - |
| 1777744339 | 20° C | 86% | 1013 hPa | 0 mm | - | - | - |
| 1777743138 | 20° C | 85% | 1013 hPa | 0 mm | - | - | - |
| 1777741937 | 20° C | 85% | 1015 hPa | 0 mm | - | - | - |
| 1777740736 | 22.78° C | 80% | 1014 hPa | 0 mm | - | - | - |
| 1777739535 | 22.22° C | 81% | 1015 hPa | 0 mm | - | - | - |
| 1777738334 | 21.11° C | 84% | 1015 hPa | 0 mm | - | - | - |
| 1777737133 | 21.11° C | 84% | 1015 hPa | 0 mm | - | - | - |
| 1777735932 | 20° C | 89% | 1015 hPa | 0 mm | - | - | - |
| 1777734731 | 20° C | 89% | 1015 hPa | 0 mm | - | - | - |
| 1777733530 | 20° C | 89% | 1014 hPa | 0 mm | - | - | - |
| 1777732329 | 20° C | 89% | 1014 hPa | 0 mm | - | - | - |
| 1777731128 | 19.44° C | 90% | 1015 hPa | 0 mm | - | - | - |
| 1777729927 | 18.89° C | 92% | 1015 hPa | 0 mm | - | - | - |
| 1777728727 | 18.89° C | 91% | 1015 hPa | 0 mm | - | - | - |
| 1777727525 | 18.89° C | 90% | 1016 hPa | 0 mm | - | - | - |
| 1777726324 | 18.89° C | 87% | 1015 hPa | 0 mm | - | - | - |
| 1777725124 | 18.89° C | 80% | 1016 hPa | 0 mm | - | - | - |
| 1777723923 | 18.89° C | 64% | 1015 hPa | 0 mm | - | - | - |
| 1777722722 | 18.89° C | 88% | 1015 hPa | 0 mm | - | - | - |
* Rain latest hour (hover to see other rain measurements)
** Current wind speed in m/s (hover to see current wind gust speed)